EXS26KP LPFR-EGNM

Flight info

Callsign EXS26KP
Flight time 2h 33m
Altitude 34000
Route ELVAR DCT BABOV DCT BARDI DCT ZMR DCT NUBLO DCT RONSI DCT DELOG DCT NOZHU/N0457F350 DCT SHIRI DCT TOJAQ DCT EPACE DCT ACCOP DCT MOCQO/N0454F360 P16 MONTY N864 REXAM DCT BARTN DCT POL
Aircraft B738/M-SDE2E3FGHIRWXY/LB1

Departure

Time 2026-05-04 11:36
Airport Faro - Gago Coutinho International Airport (LPFR)

Arrival

Time 2026-05-04 14:09
Airport Leeds Bradford Airport (EGNM)
Time Latitude Longitude Altitude Speed Heading
2026-05-04 10:41 37.01930 -7.96985 19 ft 0 kts
2026-05-04 11:28 37.01919 -7.96987 19 ft 4 kts
2026-05-04 11:29 37.01892 -7.96993 21 ft 4 kts
2026-05-04 11:29 37.01866 -7.96999 21 ft 4 kts
2026-05-04 11:29 37.01840 -7.97004 21 ft 3 kts
2026-05-04 11:29 37.01833 -7.97006 21 ft 0 kts
2026-05-04 11:33 37.01652 -7.96542 19 ft 14 kts 173°
2026-05-04 11:33 37.01606 -7.96444 19 ft 14 kts 100°
2026-05-04 11:33 37.01589 -7.96323 19 ft 16 kts 101°
2026-05-04 11:34 37.01564 -7.96153 19 ft 22 kts 99°
2026-05-04 11:34 37.01537 -7.95961 18 ft 20 kts 98°
2026-05-04 11:34 37.01473 -7.95844 19 ft 18 kts 179°
2026-05-04 11:34 37.01358 -7.95881 20 ft 17 kts 232°
2026-05-04 11:35 37.01358 -7.95985 20 ft 24 kts 279°
2026-05-04 11:35 37.01376 -7.96109 20 ft 20 kts 280°
2026-05-04 11:35 37.01448 -7.96625 21 ft 98 kts 279°
2026-05-04 11:35 37.01599 -7.97696 181 ft 141 kts 278°
2026-05-04 11:36 37.01816 -7.98893 1015 ft 138 kts 282°
2026-05-04 11:36 37.01939 -7.99692 1533 ft 142 kts 281°
2026-05-04 11:36 37.02274 -8.00899 2006 ft 165 kts 313°
2026-05-04 11:36 37.03417 -8.01430 2341 ft 199 kts
2026-05-04 11:37 37.04825 -8.00954 2622 ft 225 kts 15°
2026-05-04 11:37 37.06352 -8.00310 3034 ft 241 kts 15°
2026-05-04 11:37 37.08006 -7.99631 3565 ft 255 kts 15°
2026-05-04 11:37 37.09708 -7.98956 4462 ft 258 kts 14°
2026-05-04 11:38 37.11405 -7.98300 5273 ft 253 kts 14°
2026-05-04 11:38 37.13095 -7.97661 6031 ft 255 kts 14°
2026-05-04 11:38 37.14837 -7.97016 6770 ft 266 kts 14°
2026-05-04 11:38 37.16628 -7.96363 7568 ft 273 kts 13°
2026-05-04 11:39 37.18488 -7.95693 8328 ft 282 kts 12°
2026-05-04 11:39 37.20391 -7.95012 9246 ft 287 kts 12°
2026-05-04 11:40 37.33569 -7.90358 13517 ft 356 kts 11°
2026-05-04 11:41 37.35970 -7.89510 14350 ft 362 kts 11°
2026-05-04 11:41 37.38409 -7.88649 15199 ft 366 kts 10°
2026-05-04 11:41 37.40848 -7.87788 16062 ft 370 kts 10°
2026-05-04 11:41 37.43344 -7.86908 16889 ft 376 kts 10°
2026-05-04 11:42 37.45877 -7.86015 17758 ft 380 kts
2026-05-04 11:42 37.48443 -7.85110 18563 ft 385 kts
2026-05-04 11:42 37.51040 -7.84193 19254 ft 391 kts
2026-05-04 11:42 37.53672 -7.83264 19975 ft 395 kts
2026-05-04 11:43 37.56335 -7.82322 20693 ft 399 kts
2026-05-04 11:43 37.59029 -7.81368 21382 ft 404 kts
2026-05-04 11:43 37.61753 -7.80403 22067 ft 408 kts
2026-05-04 11:43 37.64504 -7.79428 22717 ft 414 kts
2026-05-04 11:44 37.67288 -7.78441 23363 ft 418 kts
2026-05-04 11:44 37.70103 -7.77441 23975 ft 422 kts
2026-05-04 11:44 37.72937 -7.76432 24603 ft 424 kts
2026-05-04 11:44 37.75787 -7.75417 25159 ft 427 kts
2026-05-04 11:45 37.78658 -7.74395 25658 ft 431 kts
2026-05-04 11:45 37.81566 -7.73360 26154 ft 436 kts
2026-05-04 11:45 37.84496 -7.72316 26658 ft 439 kts
2026-05-04 11:45 37.87452 -7.71261 27152 ft 442 kts
2026-05-04 11:46 37.90392 -7.70211 27628 ft 446 kts
2026-05-04 11:46 37.93397 -7.69136 28121 ft 449 kts
2026-05-04 11:46 37.96420 -7.68055 28612 ft 452 kts
2026-05-04 11:46 37.99463 -7.66966 29061 ft 456 kts
2026-05-04 11:47 38.02525 -7.65868 29474 ft 460 kts
2026-05-04 11:47 38.05620 -7.64759 29890 ft 463 kts
2026-05-04 11:47 38.08730 -7.63641 30272 ft 465 kts
2026-05-04 11:47 38.11855 -7.62518 30604 ft 469 kts
2026-05-04 11:48 38.15004 -7.61386 30948 ft 471 kts
2026-05-04 11:48 38.18148 -7.60252 31409 ft 470 kts
2026-05-04 11:48 38.21291 -7.59117 31830 ft 470 kts
2026-05-04 11:48 38.24441 -7.57981 32192 ft 472 kts
2026-05-04 11:49 38.27605 -7.56839 32624 ft 471 kts
2026-05-04 11:49 38.30756 -7.55700 33107 ft 470 kts
2026-05-04 11:49 38.33900 -7.54562 33578 ft 469 kts
2026-05-04 11:49 38.37045 -7.53424 33999 ft 470 kts
2026-05-04 11:50 38.40164 -7.52297 34066 ft 475 kts
2026-05-04 11:50 38.46513 -7.49994 34075 ft 470 kts
2026-05-04 11:51 38.52763 -7.47716 34078 ft 467 kts
2026-05-04 11:51 38.59022 -7.45441 34079 ft 468 kts
2026-05-04 11:52 38.65300 -7.43154 34077 ft 469 kts
2026-05-04 11:52 38.71593 -7.40855 34064 ft 471 kts
2026-05-04 11:53 38.77887 -7.38549 34062 ft 470 kts
2026-05-04 11:53 38.84170 -7.36243 34062 ft 469 kts
2026-05-04 11:55 39.09160 -7.27031 34049 ft 465 kts
2026-05-04 11:56 39.15386 -7.24724 34066 ft 465 kts
2026-05-04 11:56 39.21594 -7.22418 34054 ft 465 kts 10°
2026-05-04 11:57 39.27700 -7.19476 34048 ft 470 kts 16°
2026-05-04 11:57 39.33743 -7.16177 34044 ft 472 kts 16°
2026-05-04 11:58 39.39801 -7.12895 34048 ft 473 kts 16°
2026-05-04 11:58 39.45893 -7.09652 34028 ft 474 kts 15°
2026-05-04 11:59 39.52000 -7.06417 34026 ft 474 kts 15°
2026-05-04 11:59 39.58065 -7.03197 34031 ft 474 kts 16°
2026-05-04 12:00 39.64177 -6.99943 34042 ft 474 kts 15°
2026-05-04 12:00 39.70284 -6.96685 34028 ft 474 kts 15°
2026-05-04 12:01 39.76370 -6.93429 34026 ft 473 kts 15°
2026-05-04 12:02 39.96969 -6.80084 34021 ft 477 kts 26°
2026-05-04 12:03 40.02576 -6.75473 34016 ft 475 kts 26°
2026-05-04 12:03 40.08190 -6.70928 34045 ft 475 kts 25°
2026-05-04 12:04 40.13822 -6.66398 34024 ft 474 kts 25°
2026-05-04 12:04 40.19441 -6.61874 34016 ft 474 kts 25°
2026-05-04 12:05 40.25053 -6.57343 34029 ft 474 kts 25°
2026-05-04 12:05 40.30626 -6.52832 34062 ft 473 kts 26°
2026-05-04 12:06 40.36235 -6.48282 34024 ft 473 kts 26°
2026-05-04 12:06 40.41849 -6.43719 34011 ft 474 kts 26°
2026-05-04 12:07 40.47456 -6.39152 34021 ft 474 kts 26°
2026-05-04 12:07 40.53027 -6.34603 34018 ft 475 kts 26°
2026-05-04 12:08 40.58649 -6.30023 34014 ft 475 kts 25°
2026-05-04 12:08 40.64439 -6.25870 34020 ft 473 kts 21°
2026-05-04 12:09 40.70301 -6.21932 34014 ft 473 kts 21°
2026-05-04 12:09 40.76170 -6.17947 34042 ft 474 kts 22°
2026-05-04 12:10 40.82025 -6.13904 34018 ft 474 kts 22°
2026-05-04 12:10 40.87859 -6.09848 34013 ft 473 kts 22°
2026-05-04 12:11 40.93649 -6.05813 34007 ft 473 kts 23°
2026-05-04 12:11 40.99473 -6.01748 34029 ft 472 kts 23°
2026-05-04 12:12 41.05285 -5.97686 34014 ft 472 kts 23°
2026-05-04 12:12 41.11098 -5.93615 34007 ft 472 kts 23°
2026-05-04 12:14 41.34319 -5.77266 34007 ft 473 kts 24°
2026-05-04 12:15 41.40135 -5.73148 34005 ft 473 kts 24°
2026-05-04 12:15 41.45946 -5.69023 34013 ft 473 kts 24°
2026-05-04 12:16 41.51767 -5.64887 34009 ft 474 kts 24°
2026-05-04 12:16 41.57705 -5.61125 34007 ft 471 kts 19°
2026-05-04 12:17 41.63771 -5.57814 33998 ft 470 kts 18°
2026-05-04 12:17 41.69836 -5.54506 34003 ft 471 kts 19°
2026-05-04 12:18 41.75839 -5.51148 33996 ft 471 kts 19°
2026-05-04 12:18 41.81868 -5.47730 34017 ft 470 kts 19°
2026-05-04 12:19 41.87895 -5.44301 34012 ft 470 kts 19°
2026-05-04 12:19 41.93929 -5.40863 33999 ft 470 kts 19°
2026-05-04 12:20 41.99964 -5.37420 34000 ft 470 kts 19°
2026-05-04 12:20 42.05955 -5.33994 34000 ft 470 kts 19°
2026-05-04 12:21 42.11987 -5.30539 34011 ft 471 kts 20°
2026-05-04 12:21 42.18030 -5.27070 34004 ft 472 kts 20°
2026-05-04 12:22 42.24080 -5.23590 34000 ft 472 kts 20°
2026-05-04 12:22 42.29103 -5.20694 34014 ft 472 kts 20°
2026-05-04 12:23 42.35157 -5.17197 34002 ft 473 kts 20°
2026-05-04 12:23 42.41201 -5.13698 33996 ft 472 kts 20°
2026-05-04 12:24 42.47250 -5.10189 33992 ft 472 kts 20°
2026-05-04 12:24 42.53254 -5.06698 34002 ft 472 kts 20°
2026-05-04 12:25 42.59296 -5.03175 33995 ft 472 kts 20°
2026-05-04 12:25 42.65343 -4.99644 33993 ft 472 kts 20°
2026-05-04 12:26 42.71345 -4.96138 33996 ft 472 kts 20°
2026-05-04 12:26 42.77383 -4.92609 33990 ft 472 kts 20°
2026-05-04 12:27 42.83413 -4.89073 34000 ft 472 kts 20°
2026-05-04 12:27 42.89445 -4.85523 34007 ft 473 kts 20°
2026-05-04 12:28 42.95491 -4.81957 34018 ft 473 kts 21°
2026-05-04 12:28 43.01547 -4.78378 34011 ft 474 kts 21°
2026-05-04 12:29 43.07594 -4.74796 34016 ft 474 kts 21°
2026-05-04 12:29 43.13642 -4.71205 34051 ft 474 kts 21°
2026-05-04 12:30 43.19660 -4.67624 34047 ft 474 kts 21°
2026-05-04 12:30 43.25718 -4.64012 34043 ft 474 kts 21°
2026-05-04 12:31 43.31771 -4.60393 34035 ft 474 kts 21°
2026-05-04 12:31 43.37818 -4.56770 34021 ft 473 kts 21°
2026-05-04 12:32 43.46856 -4.51338 34040 ft 471 kts 21°
2026-05-04 12:33 43.52869 -4.47723 34034 ft 471 kts 21°
2026-05-04 12:33 43.58839 -4.44134 34044 ft 471 kts 22°
2026-05-04 12:34 43.64765 -4.40557 34014 ft 455 kts 21°
2026-05-04 12:34 43.70637 -4.37017 34043 ft 468 kts 21°
2026-05-04 12:35 43.76696 -4.33349 34042 ft 479 kts 22°
2026-05-04 12:35 43.82798 -4.29635 34023 ft 479 kts 22°
2026-05-04 12:36 43.88894 -4.25915 34021 ft 477 kts 22°
2026-05-04 12:36 43.94966 -4.22204 34016 ft 475 kts 22°
2026-05-04 12:37 44.01003 -4.18506 34008 ft 474 kts 22°
2026-05-04 12:37 44.07027 -4.14807 34017 ft 472 kts 22°
2026-05-04 12:38 44.13025 -4.11115 34015 ft 471 kts 22°
2026-05-04 12:38 44.19020 -4.07413 34019 ft 471 kts 22°
2026-05-04 12:39 44.25013 -4.03702 34008 ft 471 kts 22°
2026-05-04 12:39 44.30992 -4.00108 34012 ft 470 kts 17°
2026-05-04 12:40 44.37385 -3.98443 34016 ft 467 kts 360°
2026-05-04 12:40 44.43891 -3.98257 34010 ft 468 kts 358°
2026-05-04 12:41 44.50415 -3.98128 34008 ft 468 kts 359°
2026-05-04 12:41 44.56900 -3.97935 34017 ft 469 kts 359°
2026-05-04 12:42 44.63431 -3.97696 34008 ft 470 kts 359°
2026-05-04 12:42 44.69976 -3.97444 34008 ft 470 kts 360°
2026-05-04 12:43 44.76526 -3.97190 34011 ft 470 kts 359°
2026-05-04 12:43 44.83076 -3.96939 34006 ft 470 kts 359°
2026-05-04 12:44 44.89582 -3.96689 34005 ft 470 kts 359°
2026-05-04 12:44 44.96128 -3.96438 34010 ft 470 kts 360°
2026-05-04 12:45 45.02675 -3.96186 34004 ft 470 kts 360°
2026-05-04 12:45 45.09215 -3.95934 34001 ft 470 kts 360°
2026-05-04 12:46 45.15755 -3.95681 34010 ft 470 kts 360°
2026-05-04 12:46 45.22298 -3.95427 34005 ft 470 kts 360°
2026-05-04 12:47 45.28802 -3.95174 33998 ft 470 kts 360°
2026-05-04 12:47 45.35334 -3.94920 33998 ft 470 kts
2026-05-04 12:48 45.41872 -3.94665 34008 ft 470 kts
2026-05-04 12:48 45.48415 -3.94409 34005 ft 470 kts 360°
2026-05-04 12:49 45.54955 -3.94153 34003 ft 470 kts
2026-05-04 12:49 45.61494 -3.93896 33998 ft 470 kts
2026-05-04 12:50 45.68028 -3.93638 34001 ft 470 kts
2026-05-04 12:50 45.74565 -3.93380 34008 ft 470 kts
2026-05-04 12:51 45.81095 -3.93121 33990 ft 469 kts
2026-05-04 12:51 45.87587 -3.92864 33998 ft 469 kts
2026-05-04 12:52 45.94109 -3.92604 34001 ft 468 kts
2026-05-04 12:52 46.00624 -3.92344 33995 ft 468 kts
2026-05-04 12:53 46.07127 -3.92085 33997 ft 467 kts
2026-05-04 12:53 46.13621 -3.91824 33999 ft 466 kts
2026-05-04 12:54 46.20094 -3.91565 33995 ft 465 kts
2026-05-04 12:54 46.26558 -3.91305 33993 ft 465 kts
2026-05-04 12:55 46.33018 -3.91043 33999 ft 464 kts
2026-05-04 12:55 46.39475 -3.90782 33996 ft 464 kts
2026-05-04 12:56 46.45893 -3.90523 33997 ft 464 kts
2026-05-04 12:56 46.52386 -3.90260 33997 ft 464 kts
2026-05-04 12:57 46.58801 -3.89999 33995 ft 464 kts
2026-05-04 12:57 46.65265 -3.89735 33997 ft 464 kts
2026-05-04 12:58 46.71733 -3.89470 33998 ft 464 kts
2026-05-04 12:58 46.78193 -3.89206 33995 ft 465 kts
2026-05-04 12:59 46.84654 -3.88940 33998 ft 465 kts
2026-05-04 12:59 46.91128 -3.88673 33994 ft 465 kts
2026-05-04 13:00 46.97599 -3.88406 33996 ft 465 kts
2026-05-04 13:00 47.04065 -3.88138 34004 ft 465 kts
2026-05-04 13:01 47.10492 -3.87871 33992 ft 465 kts
2026-05-04 13:01 47.16968 -3.87601 33994 ft 465 kts
2026-05-04 13:02 47.23443 -3.87331 33989 ft 465 kts
2026-05-04 13:02 47.29911 -3.87061 33989 ft 465 kts
2026-05-04 13:03 47.36381 -3.86789 33992 ft 465 kts
2026-05-04 13:03 47.42842 -3.86518 33988 ft 464 kts
2026-05-04 13:04 47.49306 -3.86246 33980 ft 464 kts
2026-05-04 13:04 47.55752 -3.85974 33986 ft 464 kts
2026-05-04 13:05 47.62173 -3.85702 33986 ft 464 kts
2026-05-04 13:05 47.68628 -3.85428 33985 ft 463 kts
2026-05-04 13:06 47.75071 -3.85154 33980 ft 463 kts
2026-05-04 13:06 47.81521 -3.84879 33990 ft 463 kts
2026-05-04 13:07 47.87973 -3.84602 33988 ft 464 kts
2026-05-04 13:07 47.94433 -3.84326 33963 ft 464 kts
2026-05-04 13:08 47.99813 -3.84095 33983 ft 464 kts
2026-05-04 13:08 48.07335 -3.83771 33998 ft 465 kts
2026-05-04 13:09 48.12718 -3.83538 33957 ft 466 kts
2026-05-04 13:09 48.19206 -3.83257 33970 ft 466 kts
2026-05-04 13:10 48.25687 -3.82976 33966 ft 465 kts
2026-05-04 13:10 48.32171 -3.82694 33971 ft 465 kts
2026-05-04 13:11 48.38650 -3.82411 33971 ft 465 kts
2026-05-04 13:11 48.45123 -3.82128 33975 ft 466 kts
2026-05-04 13:12 48.51573 -3.81845 33995 ft 466 kts
2026-05-04 13:12 48.58072 -3.81559 33994 ft 467 kts
2026-05-04 13:13 48.64567 -3.81273 33996 ft 468 kts
2026-05-04 13:13 48.71076 -3.80985 33996 ft 468 kts
2026-05-04 13:14 48.77589 -3.80696 33997 ft 468 kts
2026-05-04 13:14 48.84104 -3.80407 33992 ft 468 kts
2026-05-04 13:15 48.90577 -3.80118 33989 ft 468 kts
2026-05-04 13:15 48.97085 -3.79827 34005 ft 468 kts
2026-05-04 13:16 49.03588 -3.79536 34007 ft 468 kts
2026-05-04 13:16 49.10096 -3.79243 34010 ft 467 kts
2026-05-04 13:17 49.16594 -3.78950 34010 ft 467 kts
2026-05-04 13:17 49.23082 -3.78656 34009 ft 466 kts
2026-05-04 13:18 49.29573 -3.78362 34011 ft 466 kts
2026-05-04 13:18 49.36053 -3.78066 34012 ft 466 kts
2026-05-04 13:18 49.39246 -3.77920 34016 ft 451 kts
2026-05-04 13:19 49.42324 -3.77780 33975 ft 439 kts
2026-05-04 13:19 49.48535 -3.77495 34028 ft 456 kts
2026-05-04 13:20 49.54996 -3.77194 34025 ft 470 kts
2026-05-04 13:20 49.61547 -3.76885 34012 ft 470 kts
2026-05-04 13:21 49.68041 -3.76582 34016 ft 469 kts
2026-05-04 13:21 49.74541 -3.76074 34014 ft 466 kts
2026-05-04 13:22 49.80991 -3.75259 34017 ft 464 kts
2026-05-04 13:22 49.87491 -3.74426 34400 ft 471 kts
2026-05-04 13:22 49.90752 -3.74024 34844 ft 468 kts
2026-05-04 13:23 49.94008 -3.73631 35006 ft 470 kts
2026-05-04 13:23 50.00510 -3.72855 35009 ft 464 kts
2026-05-04 13:24 50.06920 -3.72089 35022 ft 462 kts
2026-05-04 13:24 50.13336 -3.71318 35024 ft 463 kts
2026-05-04 13:25 50.22930 -3.70157 35018 ft 463 kts
2026-05-04 13:25 50.29347 -3.69377 35014 ft 462 kts
2026-05-04 13:26 50.35748 -3.68592 34995 ft 461 kts
2026-05-04 13:26 50.42146 -3.67803 35006 ft 460 kts
2026-05-04 13:27 50.48490 -3.66623 35015 ft 459 kts
2026-05-04 13:27 50.54793 -3.65387 35002 ft 459 kts
2026-05-04 13:28 50.61127 -3.64191 35004 ft 457 kts
2026-05-04 13:28 50.67438 -3.62985 35022 ft 456 kts
2026-05-04 13:29 50.73739 -3.61778 35013 ft 455 kts
2026-05-04 13:29 50.80007 -3.60574 35011 ft 452 kts
2026-05-04 13:30 50.86246 -3.59369 35016 ft 450 kts
2026-05-04 13:30 50.92527 -3.58155 35286 ft 458 kts
2026-05-04 13:31 50.95687 -3.57542 35670 ft 457 kts
2026-05-04 13:31 50.98841 -3.56930 35986 ft 457 kts
2026-05-04 13:31 51.05178 -3.55695 35996 ft 458 kts
2026-05-04 13:32 51.11460 -3.54466 35999 ft 452 kts
2026-05-04 13:32 51.17710 -3.53233 36009 ft 453 kts
2026-05-04 13:33 51.23965 -3.52005 36006 ft 453 kts
2026-05-04 13:33 51.30190 -3.50795 36000 ft 454 kts
2026-05-04 13:34 51.36466 -3.49578 36024 ft 454 kts
2026-05-04 13:34 51.42736 -3.48348 36024 ft 454 kts
2026-05-04 13:35 51.52168 -3.46482 36027 ft 456 kts
2026-05-04 13:36 51.58472 -3.45230 36010 ft 457 kts
2026-05-04 13:36 51.64772 -3.43975 36021 ft 456 kts
2026-05-04 13:37 51.71025 -3.42726 36019 ft 455 kts
2026-05-04 13:37 51.77299 -3.41467 36029 ft 453 kts
2026-05-04 13:38 51.83543 -3.40207 36020 ft 452 kts
2026-05-04 13:38 51.89787 -3.38944 36035 ft 451 kts
2026-05-04 13:39 51.96034 -3.37912 36032 ft 451 kts
2026-05-04 13:39 52.02317 -3.37515 36036 ft 451 kts
2026-05-04 13:40 52.08592 -3.37174 36031 ft 451 kts
2026-05-04 13:40 52.14859 -3.36754 36043 ft 451 kts
2026-05-04 13:41 52.21084 -3.36297 36037 ft 450 kts
2026-05-04 13:41 52.27342 -3.35831 36046 ft 449 kts
2026-05-04 13:42 52.36699 -3.35134 36047 ft 448 kts
2026-05-04 13:42 52.42926 -3.34666 36041 ft 447 kts
2026-05-04 13:43 52.49146 -3.34201 36044 ft 446 kts
2026-05-04 13:43 52.55345 -3.33716 36048 ft 445 kts
2026-05-04 13:44 52.61485 -3.33189 36041 ft 443 kts
2026-05-04 13:44 52.67383 -3.30676 35934 ft 438 kts 22°
2026-05-04 13:45 52.70251 -3.28866 35295 ft 439 kts 23°
2026-05-04 13:45 52.73103 -3.27087 34587 ft 437 kts 23°
2026-05-04 13:45 52.75949 -3.25368 33840 ft 434 kts 23°
2026-05-04 13:45 52.78790 -3.23684 32970 ft 432 kts 23°
2026-05-04 13:46 52.81613 -3.22010 32130 ft 430 kts 23°
2026-05-04 13:46 52.84419 -3.20339 31303 ft 427 kts 23°
2026-05-04 13:46 52.87206 -3.18687 30638 ft 423 kts 21°
2026-05-04 13:46 52.90046 -3.17463 29973 ft 421 kts 14°
2026-05-04 13:47 52.92916 -3.16988 29305 ft 419 kts
2026-05-04 13:47 52.95839 -3.16846 28635 ft 412 kts
2026-05-04 13:47 52.98647 -3.16684 27999 ft 405 kts
2026-05-04 13:47 53.01476 -3.16470 27401 ft 398 kts
2026-05-04 13:48 53.04167 -3.16040 26791 ft 390 kts 15°
2026-05-04 13:48 53.06668 -3.14505 26230 ft 380 kts 29°
2026-05-04 13:48 53.08878 -3.12134 25615 ft 375 kts 41°
2026-05-04 13:48 53.10704 -3.09086 25053 ft 370 kts 47°
2026-05-04 13:49 53.12443 -3.05949 24473 ft 368 kts 48°
2026-05-04 13:49 53.14168 -3.02808 23907 ft 367 kts 48°
2026-05-04 13:49 53.15897 -2.99660 23269 ft 367 kts 48°
2026-05-04 13:49 53.17629 -2.96516 22623 ft 370 kts 48°
2026-05-04 13:50 53.19391 -2.93322 22033 ft 379 kts 48°
2026-05-04 13:50 53.21188 -2.90068 21411 ft 380 kts 47°
2026-05-04 13:50 53.22972 -2.86840 20805 ft 376 kts 47°
2026-05-04 13:50 53.24737 -2.83646 20214 ft 372 kts 47°
2026-05-04 13:51 53.26479 -2.80492 19624 ft 368 kts 47°
2026-05-04 13:51 53.28206 -2.77360 19050 ft 365 kts 47°
2026-05-04 13:51 53.29920 -2.74248 18499 ft 363 kts 47°
2026-05-04 13:51 53.31628 -2.71144 17879 ft 362 kts 47°
2026-05-04 13:52 53.35010 -2.64985 16694 ft 357 kts 47°
2026-05-04 13:52 53.36680 -2.61936 16137 ft 354 kts 47°
2026-05-04 13:52 53.38336 -2.58908 15599 ft 351 kts 47°
2026-05-04 13:53 53.39981 -2.55896 15046 ft 349 kts 47°
2026-05-04 13:53 53.41614 -2.52900 14508 ft 347 kts 47°
2026-05-04 13:53 53.43237 -2.49924 13975 ft 345 kts 47°
2026-05-04 13:54 53.46468 -2.44001 12796 ft 342 kts 46°
2026-05-04 13:54 53.48211 -2.41328 12295 ft 337 kts 36°
2026-05-04 13:54 53.52016 -2.36868 11274 ft 331 kts 33°
2026-05-04 13:55 53.53909 -2.34689 10746 ft 328 kts 33°
2026-05-04 13:55 53.56933 -2.31160 10457 ft 308 kts 33°
2026-05-04 13:55 53.58650 -2.29136 10317 ft 296 kts 33°
2026-05-04 13:56 53.60306 -2.27174 10184 ft 285 kts 34°
2026-05-04 13:56 53.61894 -2.25286 10070 ft 275 kts 34°
2026-05-04 13:56 53.64989 -2.21596 9438 ft 271 kts 34°
2026-05-04 13:57 53.66522 -2.19762 9111 ft 269 kts 34°
2026-05-04 13:57 53.68044 -2.17941 8791 ft 267 kts 34°
2026-05-04 13:58 53.72566 -2.12534 7844 ft 264 kts 34°
2026-05-04 13:58 53.74466 -2.07495 7203 ft 264 kts 83°
2026-05-04 13:58 53.74555 -2.04413 6896 ft 262 kts 89°
2026-05-04 13:59 53.74221 -2.01410 6571 ft 262 kts 116°
2026-05-04 13:59 53.73181 -1.98922 6278 ft 259 kts 131°
2026-05-04 13:59 53.70810 -1.94500 5832 ft 252 kts 133°
2026-05-04 14:00 53.69633 -1.92343 5647 ft 247 kts 133°
2026-05-04 14:00 53.67324 -1.88123 5220 ft 248 kts 133°
2026-05-04 14:00 53.66136 -1.85962 5068 ft 253 kts 133°
2026-05-04 14:01 53.64931 -1.83767 4946 ft 257 kts 133°
2026-05-04 14:01 53.63709 -1.81541 4818 ft 260 kts 133°
2026-05-04 14:01 53.61255 -1.77023 4518 ft 263 kts 126°
2026-05-04 14:02 53.60676 -1.74165 4235 ft 261 kts 88°
2026-05-04 14:02 53.61244 -1.71359 3977 ft 255 kts 50°
2026-05-04 14:02 53.62610 -1.69535 3737 ft 249 kts 34°
2026-05-04 14:02 53.63891 -1.67573 3482 ft 248 kts 44°
2026-05-04 14:03 53.65092 -1.65514 3217 ft 245 kts 44°
2026-05-04 14:03 53.66273 -1.63487 3035 ft 238 kts 45°
2026-05-04 14:03 53.67402 -1.61533 2997 ft 225 kts 44°
2026-05-04 14:03 53.68444 -1.59715 2994 ft 206 kts 44°
2026-05-04 14:04 53.70310 -1.56449 2975 ft 186 kts 44°
2026-05-04 14:04 53.71202 -1.54884 2993 ft 185 kts 44°
2026-05-04 14:04 53.72097 -1.53311 2997 ft 186 kts 44°
2026-05-04 14:05 53.73887 -1.50169 3003 ft 185 kts 45°
2026-05-04 14:05 53.74829 -1.48726 2997 ft 182 kts 24°
2026-05-04 14:05 53.76060 -1.48719 3002 ft 186 kts 332°
2026-05-04 14:06 53.76902 -1.50330 3001 ft 187 kts 295°
2026-05-04 14:06 53.77632 -1.52140 2948 ft 188 kts 312°
2026-05-04 14:06 53.78576 -1.53643 2723 ft 183 kts 314°
2026-05-04 14:06 53.79483 -1.55099 2472 ft 175 kts 315°
2026-05-04 14:07 53.80329 -1.56413 2276 ft 157 kts 315°
2026-05-04 14:07 53.81104 -1.57616 2032 ft 144 kts 313°
2026-05-04 14:07 53.81811 -1.58714 1855 ft 134 kts 313°
2026-05-04 14:07 53.82498 -1.59767 1674 ft 133 kts 314°
2026-05-04 14:08 53.83191 -1.60830 1482 ft 134 kts 313°
2026-05-04 14:08 53.83882 -1.61894 1283 ft 134 kts 313°
2026-05-04 14:08 53.84556 -1.62964 1101 ft 132 kts 311°
2026-05-04 14:08 53.85234 -1.64010 928 ft 130 kts 314°
2026-05-04 14:09 53.86511 -1.65938 666 ft 105 kts 316°
2026-05-04 14:09 53.86877 -1.66493 670 ft 30 kts 318°
2026-05-04 14:10 53.86975 -1.66547 671 ft 11 kts 52°
2026-05-04 14:10 53.86983 -1.66403 668 ft 14 kts 114°
2026-05-04 14:10 53.86929 -1.66266 665 ft 16 kts 134°
2026-05-04 14:10 53.86848 -1.66138 666 ft 16 kts 137°
2026-05-04 14:11 53.86815 -1.65994 665 ft 14 kts 91°
2026-05-04 14:11 53.86814 -1.65780 664 ft 4 kts 70°
2026-05-04 14:11 53.86844 -1.65761 664 ft 5 kts
2026-05-04 14:12 53.86876 -1.65760 664 ft 2 kts
2026-05-04 14:12 53.86880 -1.65760 664 ft 0 kts